Weather in Naro-Fominsk

Russia / Moscow Oblast     55°23′10″N   36°44′04″E
temp.,
°C
wind,
m/s
gust,
m/s
humid.,
%
clouds,
%
prec.,
mm/h
press.,
hPa
HPBL,
m
27 july, tue
tue2700:00+19s2264100 0.0 102118
03:00+17ene007794 0.0 102211
06:00+17e11754 0.0 102111
09:00+24se015133 0.0 1021505
12:00+28s01360 0.0 10201875
15:00+28wnw243563 0.0 10192730
18:00+24sw34528 0.0 1018230
21:00+19ssw227684 0.0 101813
28 july, wed
wed2800:00+17sw238190 0.0 101848
03:00+16s1184100 0.2 101711
06:00+17s238495 0.1 101671
09:00+22ssw2465100 0.2 1015454
12:00+21sse3566100 0.0 1014310
15:00+23ssw5861100 0.0 10131170
18:00+16sse31092100 0.8 1011423
21:00+16se2798100 2.8 1009254
29 july, thu
thu2900:00+17ssw1599100 1.5 1008323
03:00+16w3799100 1.6 1007453
06:00+17w389763 0.1 1007518
09:00+19wnw468462 0.1 1007646
12:00+25wnw4756100 0.0 10071457
15:00+27wnw4646100 0.0 10072256
18:00+25w365623 0.0 10071039
21:00+20wsw227914 0.0 100734
30 july, fri
fri3000:00+18wsw25835 0.0 100784
03:00+16w25871 0.0 100890
06:00+17wsw25875 0.0 1008131
09:00+23w24604 0.0 1008547
12:00+27w344753 0.1 10071939
15:00+26w454842 0.1 10071303
18:00+26w345397 0.0 10061134
21:00+20wsw247090 0.1 100688
31 july, sat
sat3100:00+17ssw2783100 0.0 1007126
03:00+17sw268499 0.0 1006130
06:00+17sw3107725 0.0 1006265
09:00+22wsw485928 0.0 1006673
12:00+26wsw48395 0.0 10062004
15:00+24wsw510677 2.4 10041384
18:00+23wsw3964100 0.6 1005846
21:00+18sw358390 0.6 100677